Regional Weather Roundup
Issued by NWS

Home | Current Version | Previous Version | Graphics & Text | Print | Product List | Glossary On
Versions: 1 2 3 4 5 6 7 8 9 10 11 12 13 14 15 16 17 18 19 20 21 22 23 24 25 26 27 28 29 30 31 32 33 34 35 36 37 38 39 40 41 42 43 44 45 46 47 48 49 50
000
ASUS43 KMPX 071701
RWRMN
WEATHER ROUNDUP FOR MINNESOTA
NATIONAL WEATHER SERVICE TWIN CITIES/CHANHASSEN MN
1100 AM CST WED DEC 07 2016


NOTE: "FAIR" INDICATES FEW OR NO CLOUDS BELOW 12,000 FEET WITH NO
SIGNIFICANT WEATHER AND/OR OBSTRUCTIONS TO VISIBILITY. N/A MEANS
CURRENT SKY AND/OR WEATHER CONDITIONS ARE NOT AVAILABLE.

MNZ060>063-068>070-071800-
   Twin Cities Metro

CITY           SKY/WX    TMP DP  RH WIND       PRES   REMARKS
TWIN CITIES    FLURRIES  19   9  65 W16G26    30.04S WCI   4
ST PAUL        FLURRIES  19  11  70 W17G29    30.05S WCI   4
CRYSTAL        FLURRIES  19   8  62 W18G24    30.03S WCI   4
BLAINE         FLURRIES  19  10  68 W17G25    30.01S WCI   4
LAKEVILLE      CLOUDY    18  10  73 W22       30.05R WCI   0
EDEN PRAIRIE   LGT SNOW  18   9  68 W17G25    30.04S WCI   3
SOUTH ST PAUL  FLURRIES  20  10  65 W16G26    30.04S WCI   6
LAKE ELMO      FLURRIES  21  12  68 W22G30    30.03S WCI   5
$$
MNZ001>005-007-008-013>017-022>024-027-028-071800-
   Northwest Minnesota

CITY           SKY/WX    TMP DP  RH WIND       PRES   REMARKS
BEMIDJI        LGT SNOW  15  10  82 W21G26    29.84R WCI  -3
HALLOCK        LGT SNOW  19  18  93 NW25G33   29.88R VSB 1   WCI   2
ROSEAU         CLOUDY    25  19  80 W15       29.78S WCI  12
WARROAD        LGT SNOW  25  19  80 NW17G24   29.77R WCI  11
THIEF RVR FALL LGT SNOW  16  13  88 W17       29.89R FOG     WCI   0
CROOKSTON      FOG       16  12  86 NW23      29.94R VSB 1   WCI  -2
FOSSTON        LGT SNOW  14  10  85 W22       29.90R WCI  -4
DETROIT LAKES  LGT SNOW  14  10  85 W21G29    29.96R WCI  -4
MOORHEAD       MIX PCPN  12   9  85 W29       30.03R WCI  -9
PARK RAPIDS    LGT SNOW  14   6  70 W20       29.88R WCI  -3
$$
MNZ006-009>011-018-025>026-071800-
   North Central Minnesota

CITY           SKY/WX    TMP DP  RH WIND       PRES   REMARKS
BAUDETTE       LGT SNOW  23  20  88 W16       29.72R FOG     WCI  10
FLAG ISLAND    LGT SNOW  25  21  86 NW21      29.73R WCI  10
INTL FALLS     SNOW      23  20  88 W12G17    29.68R VSB 1/2 WCI  12
WASKISH        CLOUDY    21  18  86 W21G28    29.77R WCI   6
BIG FORK       LGT SNOW  19  16  86 W12G20    29.75R WCI   7
LONGVILLE      LGT SNOW  16  10  79 W16       29.85R WCI   0
GRAND RAPIDS   LGT SNOW  17  12  80 W14G23    29.81R WCI   3
CRANE LAKE     LGT SNOW  21  19  93 W7        29.68S WCI  13
COOK           LGT SNOW  19  16  86 SW14G22   29.71R WCI   6
$$
MNZ012-019>021-037-071800-
   Northeast Minnesota

CITY           SKY/WX    TMP DP  RH WIND       PRES   REMARKS
DULUTH         LGT SNOW  17  11  77 W23G29    29.76R BLWGSNOWWCI  -1
ELY            FLURRIES  19  16  86 W16G22    29.66R WCI   5
HIBBING        LGT SNOW  17  13  84 W9G20     29.75R FOG     WCI   6
EVELETH        LGT SNOW  19  14  82 W13G22    29.74R WCI   6
DULUTH HARBOR  FLURRIES  21  12  68 SW20G30   29.84R WCI   6
TWO HARBORS    LGT SNOW  21  14  73 W18G26    29.73R WCI   6
SILVER BAY     FLURRIES  21  16  79 W8G17     29.69S WCI  12
GRAND MARAIS     N/A     28  22  78 W17G23    29.66R WCI  16
G MARAIS ARPRT LGT SNOW  18  12  79 W9        29.58S WCI   6
$$
MNZ029>031-032-039>041-046>048-054>057-064-071800-
   West Central Minnesota

CITY           SKY/WX    TMP DP  RH WIND       PRES   REMARKS
FERGUS FALLS   LGT SNOW  12   9  85 NW26G33   30.09R VSB 1   WCI  -8
WHEATON        LGT SNOW  18  10  73 W24G33    30.12R WCI   0
MORRIS         LGT SNOW  16   9  73 W29G36    30.07R WCI  -4
ALEXANDRIA     LGT SNOW  13   8  81 W22G32    30.01R WCI  -6
ELBOW LAKE     LGT SNOW  13   9  87 NW24G30   30.05R WCI  -7
WADENA         LGT SNOW  12   7  79 W18G26    29.94R WCI  -5
GLENWOOD       LGT SNOW  12   9  85 W20G30    30.03R WCI  -6
APPLETON       CLOUDY    18   7  62 NW23G31   30.11R WCI   0
BENSON         FLURRIES  18   9  68 NW23G29   30.09S WCI   0
ORTONVILLE     CLOUDY    16   7  67 W22G35    30.11S WCI  -2
MADISON        CLOUDY    19   9  63 W26G33    30.14S WCI   1
WILLMAR        FLURRIES  18  10  73 W21G36    30.08S WCI   1
$$
MNZ033>034-036-042>043-049>051-058-059-071800-
   Central Minnesota

CITY           SKY/WX    TMP DP  RH WIND       PRES   REMARKS
ST CLOUD       FLURRIES  16   8  71 W23G35    30.01R WCI  -2
PAYNESVILLE    FLURRIES  15   8  75 W21G32    30.05R WCI  -2
AITKIN         MIX PCPN  19   9  63 W8G18     29.87R WCI   9
PINE RIVER     FLURRIES  16   9  73 W9G20     29.92R WCI   4
BRAINERD       CLOUDY    15   7  70 W16G26    29.92R WCI  -1
STAPLES        CLOUDY    12   9  85 W20       29.94R WCI  -6
LONG PRAIRIE   CLOUDY    14   7  73 SW16G26   29.99S WCI  -2
LITTLE FALLS   CLOUDY    16   7  67 W17G28    29.98R WCI   0
LITCHFIELD     CLOUDY    18  10  73 W21G29    30.06R WCI   1
BUFFALO        FLURRIES  17  10  71 W17G24    30.05S WCI   2
MAPLE LAKE     LGT SNOW  18  11  75 W15G23    30.04S WCI   4
HUTCHINSON     FLURRIES  17  10  73 W25G33    30.08R WCI  -1
$$
MNZ037-044-045-052-053-071800-
   East Central Minnesota

CITY           SKY/WX    TMP DP  RH WIND       PRES   REMARKS
PRINCETON      FLURRIES  19  10  68 W16G24    29.99S WCI   5
MORA           PTSUNNY   18   9  68 W16G24    29.97R WCI   3
CAMBRIDGE      FLURRIES  19   9  63 W13G25    29.97S WCI   7
RUSH CITY      CLOUDY    18  10  73 W16G24    29.98R WCI   3
MOOSE LAKE     FLURRIES  18  10  73 W16G23    29.86R WCI   3
HINCKLEY       CLOUDY    19  12  73 SW17G25   29.93R WCI   4
CLOQUET        LGT SNOW  18   9  68 W18G30    29.80R WCI   2
MCGREGOR       CLOUDY    18  10  73 W12G21    29.87R WCI   5
$$
MNZ071>073-080-081-089-090-097-098-071800-
   Southwest Minnesota

CITY           SKY/WX    TMP DP  RH WIND       PRES   REMARKS
MONTEVIDEO     CLOUDY    18   9  68 NW16G26   30.13S WCI   3
GRANITE FALLS  CLOUDY    18   9  68 W23G32    30.15S WCI   0
CANBY          PTSUNNY   18   8  65 NW26G33   30.17R WCI  -1
MARSHALL       SUNNY     16   7  67 W31       30.13F WCI  -4
REDWOOD FALLS  CLOUDY    18   5  57 W22G32    30.13S WCI   1
OLIVIA         PTSUNNY   18  10  73 W22G31    30.10S WCI   0
PIPESTONE      MOSUNNY   14   7  73 NW22G32   30.15S WCI  -4
WINDOM         SUNNY     18   9  68 W26G35    30.12S WCI  -1
WORTHINGTON    SUNNY     14   7  73 W28G36    30.15R WCI  -6
JACKSON        SUNNY     16   7  67 W18G29    30.13S WCI  -1
TRACY          SUNNY     17   9  69 W17G29    30.14S WCI   2
SLAYTON        SUNNY     13   7  77 W26G35    30.13S WCI  -7
$$
MNZ065>067-074>077-082>085-091>093-071800-
   South Central Minnesota

CITY           SKY/WX    TMP DP  RH WIND       PRES   REMARKS
MANKATO        FLURRIES  15   8  73 W16G26    30.11S WCI  -1
NEW ULM        CLOUDY    16   7  67 W28G36    30.12S WCI  -4
ST JAMES       MOSUNNY   18   9  68 W25G32    30.14S WCI  -1
FAIRMONT       MOSUNNY   17   8  67 W23       30.14S WCI  -1
GLENCOE        LGT SNOW  18  12  80 W20G29    30.08R WCI   1
FARIBAULT      CLOUDY    18  10  73 SW14G23   30.08S WCI   4
OWATONNA       CLOUDY    16   9  73 W21       30.08R WCI  -2
WASECA         PTSUNNY   18  10  73 W21G26    30.11S WCI   1
ALBERT LEA     CLOUDY    19  10  68 W15G28    30.10R WCI   5
$$
MNZ078>079-086>088-094>096-071800-
   Southeast Minnesota

CITY           SKY/WX    TMP DP  RH WIND       PRES   REMARKS
ROCHESTER      FLURRIES  15  10  80 W23       30.04S WCI  -3
RED WING       FLURRIES  19   9  63 W14G29    30.04S WCI   6
STANTON        CLOUDY    19  10  67 W15G24    30.06S WCI   5
DODGE CENTER     N/A     16  10  79 W25G31    30.05R WCI  -3
WINONA         SUNNY     21  12  68 W13G20    30.07S WCI   9
AUSTIN         FLURRIES  16  10  79 W21       30.08R WCI  -2
PRESTON        LGT SNOW  15   9  77 W15       30.07R WCI  -1
$$
ABBREVIATIONS USED IN REMARKS
   TC - TEMPERATURES IN CELSIUS
  WCI - WIND CHILL INDEX
   HX - HEAT INDEX
  VSB - VISIBILITY
$$




USA.gov is the U.S. government's official web portal to all federal, state and local government web resources and services.